Location: Aulus
(42.7909°N, 1.3399°E)
Time: 16:19:54
(UTC+00:00)

Spot 2 Rocket - Pass Details

Date: 19 May 2025
Orbit: 753 x 766 km, 98.3° (Epoch: 13 June)

Event Time Altitude Azimuth Distance (km) Brightness Sun altitude
Exits shadow 20:17:36 14° 128° (SE) 2,035 5.0 -10.3°
Maximum altitude 20:21:26 35° 68° (ENE) 1,215 4.3 -10.9°
Drops below altitude 10° 20:25:57 10° 4° (N) 2,292 6.5 -11.5°
Sets 20:28:25 0° 356° (N) 3,223 7.5 -11.8°
